Weather History for Seward, AK

Change the Weather History Date:

Friday, February 22, 2013

  Actual Average Record
Temperature  
Mean Temperature 26 °F -  
Max Temperature 32 °F 33 °F 47 °F (1970)
Min Temperature 19 °F 21 °F 5 °F (1979)
Degree Days  
Heating Degree Days 38    
Moisture  
Dew Point 14 °F    
Average Humidity 56    
Maximum Humidity 68    
Minimum Humidity 42    
Precipitation  
Precipitation 0.00 in - - ()
Sea Level Pressure  
Sea Level Pressure 29.29 in    
Wind  
Wind Speed 13 mph (North)    
Max Wind Speed 18 mph    
Max Gust Speed 28 mph    
Visibility 10 miles    
Events      
Averages and records for this station are not official NWS values.
T = Trace of Precipitation, MM = Missing Value Source: NWS Daily Summary

Daily Weather History Graph

Daily Weather History Graph

Search for Another Location

Airport:

Trip Planner

Search our weather history database for the weather conditions in past years. The results will help you decide how hot, cold, wet, or windy it might be!

Date:

Astronomy

Feb. 22, 2013 Rise Set
Actual Time 8:15 AM AKST 6:08 PM AKST
Civil Twilight 7:32 AM AKST 6:51 PM AKST
Nautical Twilight 6:44 AM AKST 7:39 PM AKST
Astronomical Twilight 5:55 AM AKST 8:28 PM AKST
Moon 3:00 PM AKST (2/22) 6:39 AM AKST (2/22)
Length of Visible Light 11h 18m
Length of Day
9h 53m
Waxing Gibbous, 91% of the Moon is Illuminated
Feb 22
Waxing Gibbous
Feb 25
Full
Mar 4
Last Quarter
Mar 11
New
Mar 19
First Quarter

Hourly Weather History & Observations

Time (AKST) Temp. Windchill Dew Point Humidity Pressure Visibility Wind Dir Wind Speed Gust Speed Precip Events Conditions
12:53 AM 32.0 °F 23.0 °F 21.9 °F 66% 29.16 in 10.0 mi North 11.5 mph 25.3 mph N/A   Overcast
1:53 AM 30.9 °F 19.4 °F 21.0 °F 67% 29.16 in 10.0 mi NNW 17.3 mph 24.2 mph N/A   Scattered Clouds
2:53 AM 30.9 °F 21.2 °F 21.0 °F 67% 29.18 in 10.0 mi NNW 12.7 mph 21.9 mph N/A   Mostly Cloudy
3:53 AM 30.9 °F 19.8 °F 19.0 °F 61% 29.18 in 10.0 mi NNW 16.1 mph 25.3 mph N/A   Mostly Cloudy
4:53 AM 30.0 °F 20.0 °F 19.9 °F 66% 29.18 in 10.0 mi NNW 12.7 mph 24.2 mph N/A   Mostly Cloudy
5:53 AM 30.0 °F 20.5 °F 19.0 °F 64% 29.20 in 10.0 mi North 11.5 mph 19.6 mph N/A   Mostly Cloudy
6:53 AM 30.0 °F 19.5 °F 17.1 °F 59% 29.20 in 10.0 mi NW 13.8 mph 27.6 mph N/A   Mostly Cloudy
7:53 AM 28.9 °F 19.2 °F 16.0 °F 58% 29.23 in 10.0 mi NNW 11.5 mph 18.4 mph N/A   Overcast
8:53 AM 28.0 °F 17.5 °F 14.0 °F 56% 29.24 in 10.0 mi North 12.7 mph - N/A   Overcast
9:53 AM 28.0 °F 15.3 °F 12.9 °F 53% 29.26 in 10.0 mi NNE 18.4 mph 24.2 mph N/A   Scattered Clouds
10:53 AM 30.0 °F 19.1 °F 12.9 °F 49% 29.28 in 10.0 mi North 15.0 mph 21.9 mph N/A   Clear
11:53 AM 30.9 °F 19.4 °F 12.9 °F 47% 29.30 in 10.0 mi North 17.3 mph 24.2 mph N/A   Scattered Clouds
12:53 PM 30.9 °F 19.4 °F 12.0 °F 46% 29.32 in 10.0 mi North 17.3 mph 21.9 mph N/A   Scattered Clouds
1:53 PM 30.9 °F 19.4 °F 10.0 °F 42% 29.33 in 10.0 mi North 17.3 mph 24.2 mph N/A   Clear
2:53 PM 30.9 °F 19.1 °F 10.9 °F 43% 29.35 in 10.0 mi NNW 18.4 mph 26.5 mph N/A   Clear
3:53 PM 30.0 °F 19.1 °F 10.9 °F 45% 29.35 in 10.0 mi NNW 15.0 mph 21.9 mph N/A   Clear
4:53 PM 28.9 °F 18.2 °F 10.9 °F 47% 29.37 in 10.0 mi North 13.8 mph - N/A   Partly Cloudy
5:53 PM 27.0 °F 18.0 °F 10.9 °F 51% 29.37 in 10.0 mi North 9.2 mph - N/A   Clear
6:53 PM 26.1 °F 16.8 °F 10.0 °F 51% 29.41 in 10.0 mi North 9.2 mph - N/A   Clear
7:53 PM 25.0 °F 15.5 °F 10.9 °F 55% 29.42 in 10.0 mi NNE 9.2 mph - N/A   Clear
8:53 PM 24.1 °F 13.7 °F 10.0 °F 55% 29.39 in 10.0 mi North 10.4 mph - N/A   Clear
9:53 PM 24.1 °F 11.5 °F 10.0 °F 55% 29.39 in 10.0 mi North 15.0 mph - N/A   Clear
10:53 PM 21.9 °F 13.4 °F 10.9 °F 63% 29.40 in 10.0 mi North 6.9 mph - N/A   Clear
11:53 PM 19.9 °F 9.3 °F 10.9 °F 68% 29.40 in 10.0 mi NNW 9.2 mph - N/A   Partly Cloudy